2024-170C

Last updated on Tue Oct 08 2024 00:02:04 GMT+0000 (Coordinated Universal Time)

1 61197U 24170C 24281.55906267 .00001623 00000+0 93048-3 0 9993 2 61197 44.8636 21.3771 0006600 350.5217 9.5494 14.13208133 2417
UTC large
Height (km)
Speed (km/s)
/
Latitude / Longitude
Inclination (degrees)
Orbital Period (minutes)
Azimuth
Elevation
Range (km)
Doppler Factor

Next 0 passes for location: London (51.5072 / 0.1276)

Sorry there are no passes over London.